Regional Weather Roundup
Issued by NWS Cleveland, OH

Home | Current Version | Previous Version | Graphics & Text | Print | Product List | Glossary On
Versions: 1 2 3 4 5 6 7 8 9 10 11 12 13 14 15 16 17 18 19 20 21 22 23 24 25 26 27 28 29 30 31 32 33 34 35 36 37 38 39 40 41 42 43 44 45 46 47 48 49 50
000
ASUS41 KCLE 201212
RWRCLE
OHIO REGIONAL WEATHER ROUNDUP
NATIONAL WEATHER SERVICE WILMINGTON, OH
800 AM EDT SAT OCT 20 2018

NOTE: "FAIR" INDICATES FEW OR NO CLOUDS BELOW 12,000 FEET WITH NO
SIGNIFICANT WEATHER AND/OR OBSTRUCTIONS TO VISIBILITY.

OHZ001>008-015>018-024>027-034-035-043-044-201300-
   NORTHWEST OHIO

CITY           SKY/WX    TMP DP  RH WIND       PRES   REMARKS
DEFIANCE       FAIR      47  44  90 SW6       29.81S
FINDLAY        FAIR      50  46  86 SW13      29.81S
TOLEDO EXPRESS FAIR      49  45  86 SW10      29.79S
TOLEDO EXEC    FAIR      49  46  90 SW9       29.79F
LIMA           CLOUDY    48  45  89 W10       29.84S
$$

OHZ009>014-019>023-028>033-038-089-201300-
   NORTHEAST OHIO

CITY           SKY/WX    TMP DP  RH WIND       PRES   REMARKS
CLE-HOPKINS    FAIR      49  45  86 SW8       29.81S
CLE-LAKEFRONT  FAIR      50  45  83 SW16      29.77S
CUY CO. ARPT   MOCLDY    50  46  87 SW16      29.78R
LORAIN-ELYRIA  MOCLDY    47  41  80 W10         N/A
ASHTABULA      MOCLDY    49  47  93 SW9       29.76R
AKRON-CANTON   CLOUDY    50  45  83 SW10      29.81S
WOOSTER        CLOUDY    49  46  90 SW10      29.81F
MANSFIELD      CLOUDY    50  47  89 SW10      29.81F
YOUNGSTOWN     CLOUDY    48  46  93 SW12      29.78S
$$

OHZ042-051>053-060>062-070>072-077>081-201300-
  SOUTHWEST OHIO

CITY           SKY/WX    TMP DP  RH WIND       PRES   REMARKS
CINC-COVINGTON CLOUDY    52  50  93 SW6       29.93F
CINC-LUNKEN    CLOUDY    52  51  97 SW9       29.94S
HAMILTON       CLOUDY    52  49  89 SW7       29.93S
DAYTON         MOCLDY    48  47  96 SW12      29.89S
WRIGHT-PAT AFB CLOUDY    51  48  89 SW10      29.88S
DAYTON GENERAL CLOUDY    52  48  86 SW12      29.90S
WILMINGTON     CLOUDY    50  48  93 W13       29.90F
$$

OHZ036-037-039>041-045>050-054>059-063>069-073>076-082>088-201300-
  CENTRAL AND SOUTHEAST OHIO

CITY           SKY/WX    TMP DP  RH WIND       PRES   REMARKS
COLUMBUS       CLOUDY    51  48  89 SW8       29.87F FOG
OSU AIRPORT    CLOUDY    50  48  93 SW9       29.87S
BOLTON FIELD   CLOUDY    50  48  93 SW12G18   29.88F
RICKENBACK AFB LGT RAIN  49  49  99 SW8       29.88S
NEWARK         CLOUDY    50  48  93 SW8       29.86F
MARION         CLOUDY    50  46  86 W10       29.84S
LANCASTER      CLOUDY    50  49  96 W9        29.89S FOG
ZANESVILLE     CLOUDY    50  47  89 W6        29.87S FOG
NEW PHILLY     CLOUDY    49  47  93 W6        29.85F
$$




USA.gov is the U.S. government's official web portal to all federal, state and local government web resources and services.